Weather in Mendeleevsk

Russia / Republic of Tatarstan     55°53′42″N   52°18′51″E
temp.,
°C
wind,
m/s
gust,
m/s
humid.,
%
clouds,
%
prec.,
mm/h
press.,
hPa
HPBL,
m
7 may, fri
fri700:00+9s3486100 0.0 101656
03:00+8ssw3488100 0.0 101764
06:00+11ssw4107395 0.0 1017267
09:00+17ssw6951100 0.0 10171019
12:00+18ssw7943100 0.0 10162033
15:00+19ssw71045100 0.0 10162528
18:00+15ssw3757100 0.0 1015208
21:00+12s3567100 0.0 101691
8 may, sat
sat800:00+11ssw3568100 0.0 101699
03:00+11w2272100 0.0 101726
06:00+11nne2378100 0.0 1018193
09:00+15ese2262100 0.0 1017646
12:00+17sw3452100 0.0 10171275
15:00+18sw344714 0.0 10171461
18:00+17sse23585 0.0 101665
21:00+12se3369100 0.0 101640
9 may, sun
sun900:00+11sse22765 0.0 101627
03:00+10se22778 0.0 101622
06:00+13se36716 0.0 1016201
09:00+19sse574621 0.0 10161044
12:00+21s5637100 0.0 10152433
15:00+21ssw5637100 0.0 10152223
18:00+19s225380 0.0 101634
21:00+15se2258100 0.0 101616
10 may, mon
mon1000:00+15wsw2360100 0.0 101749
03:00+12nnw6988100 0.0 1019330
06:00+11nw4790100 0.6 1022351
09:00+11nnw5781100 0.9 1024495
12:00+11nnw5777100 0.0 1026648
15:00+11nne3668100 0.0 1027672
18:00+13n47555 0.0 1027227
21:00+6nnw34914 2.0 102961
11 may, tue
tue1100:00+7n33665 0.0 103038
03:00+6nne227076 0.0 103214
06:00+9n236095 0.0 1033158
09:00+14n234233 0.0 10331162
12:00+17nnw23366 0.0 10321611
15:00+18n233774 0.0 10311596
18:00+17ne1152100 0.0 103111
21:00+12wnw116290 0.0 103110